Retour au catalogue

STARLINK-5332

ActifCommunicationsVLEO
NORAD 55285·PAYLOAD·🇺🇸 United States

Lancé Jan 19, 2023 depuis Vandenberg Space Force Base

Loading…

Prochains Passages (prochaines 24 heures)

TLE

FraisSource: CelesTrak SupGP

Époque: Sep 15, 2026, 02:26 UTC

1 55285C 23010S   26258.10187500 -.00043925  00000+0 -36802-2 0  2589
2 55285  70.0008 246.7982 0003287 269.0237 177.4670 14.98360701    11

Suivez STARLINK-5332 en temps réel avec AllMySat

Download on the App Store